This demonstration page uses our WeatherBlox Daily Observations layout. Learn more.

Left ArrowRight Arrow

34.02893, -84.19858

Hourly Observations for August 3, 2020

Temp ( °F °C ) Dew Point ( °F °C ) Humidity (%) Winds ( mph kmh ) Pressure ( in mb ) Visibility ( mi km ) Precip ( " mm )
12:53 am 00:53 Clear 74 23.3 69 20.6 85 85 Calm 29.93 1014 10 16 0.00 0.00
1:53 am 01:53 Clear 73 22.8 69 20.6 87 87 N 5 7 29.93 1014 10 16 0.00 0.00
2:53 am 02:53 Clear 74 23.3 70 21.1 88 88 Calm 29.92 1013 10 16 0.00 0.00
3:53 am 03:53 Partly Cloudy 74 23.3 70 21.1 88 88 Calm 29.93 1013 10 16 0.00 0.00
4:53 am 04:53 Clear 74 23.3 68 20 82 82 Calm 29.93 1014 10 16 0.00 0.00
5:53 am 05:53 Clear 74 23.3 68 20 82 82 Calm 29.93 1014 10 16 0.00 0.00
6:53 am 06:53 Sunny 73 22.8 68 20 84 84 Calm 29.93 1014 10 16 0.00 0.00
7:53 am 07:53 Sunny 75 23.9 70 21.1 84 84 Calm 29.94 1014 10 16 0.00 0.00
8:51 am 08:51 Mostly Cloudy 75 24 72 22 89 89 Calm 29.98 1015 10 16 0.00 0.00
8:53 am 08:53 Mostly Cloudy 77 25 71 21.7 82 82 Calm 29.97 1015 10 16 0.00 0.00
9:53 am 09:53 Mostly Sunny 80 26.7 72 22.2 76 76 Calm 29.96 1015 10 16 0.00 0.00
10:53 am 10:53 Sunny 82 27.8 72 22.2 72 72 N 3 6 29.96 1015 10 16 0.00 0.00
11:53 am 11:53 Partly Cloudy 88 31.1 74 23.3 63 63 Calm 29.94 1014 10 16 0.00 0.00
12:53 pm 12:53 Mostly Cloudy 85 29.4 72 22.2 65 65 Calm 29.92 1013 10 16 0.00 0.00
1:47 pm 13:47 Partly Cloudy with Thunderstorms 84 29 73 23 70 70 ESE 3 6 29.88 1012 10 16 0.00 0.00
1:48 pm 13:48 Partly Cloudy with Thunderstorms 85 29.4 74 23.3 70 70 VRB 3 6 29.88 1012 10 16 0.00 0.00
2:15 pm 14:15 Cloudy with Nearby Thunderstorms 81 27.2 73 22.8 77 77 SSE 14 22 29.87 1011 7 11 0.01 0.25
2:22 pm 14:22 Cloudy with Strong Thunderstorms 74 23.3 70 21.1 88 88 SE 8 13 29.89 1012 2 3 0.10 2.54
2:29 pm 14:29 Cloudy with Strong Thunderstorms 72 22.2 69 20.6 91 91 ESE 7 11 29.92 1013 1 1 0.28 7.11
2:38 pm 14:38 Cloudy with Thunderstorms 72 22.2 68 20 87 87 WNW 9 15 29.96 1014 2 3 0.30 7.62
2:48 pm 14:48 Cloudy with Strong Thunderstorms 72 22 70 21 94 94 WSW 28 44 30.00 1016 1 1 0.47 11.94
2:51 pm 14:51 Cloudy with Strong Thunderstorms 70 21 68 20 94 94 W 28 44 29.99 1016 0 0 0.65 16.51
2:53 pm 14:53 Cloudy with Strong Thunderstorms 69 20.6 67 19.4 93 93 W 26 43 29.97 1015 0 0 0.75 19.05
3:00 pm 15:00 Cloudy with Strong Thunderstorms 68 20 66 18.9 93 93 WNW 20 31 29.99 1016 0 0 0.28 7.11
3:09 pm 15:09 Cloudy with Strong Thunderstorms 68 20 66 18.9 93 93 N 17 28 29.95 1014 1 1 0.45 11.43
3:15 pm 15:15 Cloudy with Thunderstorms 68 20 66 18.9 93 93 NNE 10 17 29.94 1014 2 3 0.47 11.94
3:22 pm 15:22 Mostly Cloudy with Thunderstorms 69 20.6 67 19.4 93 93 N 8 13 29.94 1014 5 8 0.47 11.94
3:42 pm 15:42 Partly Cloudy with Nearby Thunderstorms 73 22.8 68 20 84 84 VRB 3 6 29.93 1014 10 16 0.48 12.19
3:53 pm 15:53 Sunny 75 23.9 68 20 79 79 VRB 3 6 29.92 1013 10 16 0.48 12.19
4:53 pm 16:53 Sunny 77 25 69 20.6 77 77 Calm 29.91 1013 10 16 0.00 0.00
5:53 pm 17:53 Sunny 80 26.7 71 21.7 74 74 Calm 29.90 1012 10 16 0.00 0.00
6:53 pm 18:53 Sunny 80 26.7 70 21.1 71 71 NE 6 9 29.88 1012 10 16 0.00 0.00
7:53 pm 19:53 Sunny 77 25 70 21.1 79 79 E 5 7 29.88 1012 10 16 0.00 0.00
8:53 pm 20:53 Clear 72 22.2 68 20 87 87 E 3 6 29.91 1013 10 16 0.00 0.00
9:53 pm 21:53 Clear 71 21.7 68 20 90 90 Calm 29.92 1013 10 16 0.00 0.00
10:53 pm 22:53 Clear 70 21.1 68 20 93 93 VRB 3 6 29.92 1013 10 16 0.00 0.00
11:53 pm 23:53 Clear 69 20.6 67 19.4 93 93 Calm 29.92 1013 10 16 0.00 0.00

Powered by AerisWeather